カタログに戻る

THOR ABLESTAR DEB

運用中LEO
NORAD 329·DEBRIS·🇺🇸 United States

打ち上げ Jun 29, 1961 から Cape Canaveral Space Force Station

Loading…

次のパス (今後24時間)

TLE

最新Source: Space-Track

元期: Sep 7, 2026, 13:46 UTC

1 00329U 61015DF  26250.57363529 -.00000041  00000-0  35996-4 0  9994
2 00329  66.7807 181.3420 0120197 298.5579 237.5145 13.66145608241266

AllMySatでTHOR ABLESTAR DEBをリアルタイム追跡

Download on the App Store